Regional Weather Roundup
Issued by NWS

Home | Current Version | Previous Version | Graphics & Text | Print | Product List | Glossary On
Versions: 1 2 3 4 5 6 7 8 9 10 11 12 13 14 15 16 17 18 19 20 21 22 23 24 25 26 27 28 29 30 31 32 33 34 35 36 37 38 39 40 41 42 43 44 45 46 47 48 49 50
000
ASUS45 KCYS 030010
RWRWY

WYOMING REGIONAL WEATHER ROUNDUP
NATIONAL WEATHER SERVICE CHEYENNE WY
600 PM MDT TUE SEP 02 2014

NOTE:  "FAIR" INDICATES FEW OR NO CLOUDS BELOW 12,000 FEET
WITH NO SIGNIFICANT WEATHER AND/OR OBSTRUCTIONS TO VISIBILITY.

WYZ001-030100-
YELLOWSTONE NATIONAL PARK

CITY           SKY/WX    TMP DP  RH WIND       PRES   REMARKS
LK YELLOWSTONE   N/A     62  26  25 W10G20    30.08F
6HR MIN TEMP:  57; 6HR MAX TEMP:  64;

W YELLOWSTONE  NOT AVBL

$$
WYZ002>013-054>058-071-098>099-030100-
NORTHERN WYOMING

CITY           SKY/WX    TMP DP  RH WIND       PRES   REMARKS
JACKSON        SUNNY     73  28  19 SW12      29.97F
CODY             N/A    N/A N/A N/A MISG        N/A
GREYBULL       SUNNY     83 N/A N/A S8        29.74F
WORLAND        SUNNY     83  30  14 CALM      29.76F
6HR MIN TEMP:  71; 6HR MAX TEMP:  84;

SHERIDAN       SUNNY     80  38  22 SE7       29.77F
6HR MIN TEMP:  70; 6HR MAX TEMP:  81;

BUFFALO        SUNNY     78  34  20 NW5       29.84F
6HR MIN TEMP:  70; 6HR MAX TEMP:  79;

GILLETTE       SUNNY     79  36  21 SE8       29.81F
6HR MIN TEMP:  73; 6HR MAX TEMP:  81;

HULETT         FAIR      79  34  19 MISG      29.85
NEWCASTLE      FAIR      81  30  16 SE8       29.84

$$
WYZ014>020-022>026-101>103-030100-
CENTRAL WYOMING

CITY           SKY/WX    TMP DP  RH WIND       PRES   REMARKS
BIG PINEY      SUNNY     73  31  21 W15       30.04F
6HR MIN TEMP:  63; 6HR MAX TEMP:  76;

PINEDALE       CLEAR     72  23  16 SW6G22    30.04F
DUBOIS         FAIR      70  21  16 W22G32    29.99F
LANDER         SUNNY     83  29  14 NW10      29.86F
6HR MIN TEMP:  69; 6HR MAX TEMP:  83;

RIVERTON       SUNNY     81  26  13 S9        29.87F
6HR MIN TEMP:  68; 6HR MAX TEMP:  81;

CASPER         SUNNY     82  26  13 W23G29    29.88F
6HR MIN TEMP:  75; 6HR MAX TEMP:  85;

DOUGLAS        SUNNY     83  33  16 W13       29.88F
6HR MIN TEMP:  69; 6HR MAX TEMP:  85;


$$
WYZ021-027>030-104>119-030100-
SOUTHERN WYOMING

CITY           SKY/WX    TMP DP  RH WIND       PRES   REMARKS
EVANSTON       SUNNY     76  35  22 W22G32    30.08F
6HR MIN TEMP:  72; 6HR MAX TEMP:  79;

KEMMERER       CLEAR     73  30  20 W22G30    30.07F
FORT BRIDGER   FAIR      79  32  18 W23G31    30.09F
ROCK SPRINGS   SUNNY     79  26  14 W32G39    30.02F
6HR MIN TEMP:  69; 6HR MAX TEMP:  80;

DIXON          FAIR      80  33  18 SW15G24   30.06F
RAWLINS        SUNNY     77  31  18 SW20G28   30.03F
6HR MIN TEMP:  70; 6HR MAX TEMP:  79;

SARATOGA       FAIR      77  32  19 W22       30.08F
LARAMIE        SUNNY     76  31  19 W16       30.07F
6HR MIN TEMP:  70; 6HR MAX TEMP:  78;

CHEYENNE       MOSUNNY   79  42  26 S14G26    30.01S
6HR MIN TEMP:  73; 6HR MAX TEMP:  83;

TORRINGTON     SUNNY     85  35  16 SW7       29.85F
6HR MIN TEMP:  78; 6HR MAX TEMP:  88;

PINE BLUFFS    FAIR      81  36  19 SW7       29.94F

$$


USA.gov is the U.S. government's official web portal to all federal, state and local government web resources and services.